Overview Statistics Trail Chart Weather Telemetry Raw packets
 

This is the latest recevied weather packets stored in our database for station/object HG8GL-6. If no packets are shown the sender has not sent any weather packets the latest 10 day(s).

<< 49 50 51 52 53 54 >>
Time Temp. Humidity Pressure Rain* Wind** Luminosity Snow
1787845738 30° C 32% 1017 hPa 0 mm - - -
1787845138 30.56° C 31% 1017 hPa 0 mm - - -
1787844538 31.11° C 31% 1017 hPa 0 mm - - -
1787843938 31.67° C 31% 1018 hPa 0 mm - - -
1787843308 31.67° C 30% 1017.8 hPa 0 mm - - -
1787842708 32.22° C 30% 1017 hPa 0 mm - - -
1787842078 32.22° C 30% 1018 hPa 0 mm - - -
1787841478 32.22° C 30% 1017 hPa 0 mm - - -
1787840848 32.22° C 30% 1017 hPa 0 mm - - -
1787840218 32.78° C 30% 1017 hPa 0 mm - - -
1787839588 32.78° C 30% 1017 hPa 0 mm - - -
1787838988 32.78° C 30% 1017 hPa 0 mm - - -
1787838358 32.78° C 30% 1018 hPa 0 mm - - -
1787837728 32.78° C 30% 1018 hPa 0 mm - - -
1787837098 32.78° C 30% 1018 hPa 0 mm - - -
1787836498 32.22° C 30% 1017 hPa 0 mm - - -
1787835898 32.22° C 31% 1018 hPa 0 mm - - -
1787835297 32.22° C 30% 1018 hPa 0 mm - - -
1787834668 32.22° C 30% 1018 hPa 0 mm - - -
1787834068 32.78° C 31% 1017 hPa 0 mm - - -
1787833438 32.22° C 31% 1017.2 hPa 0 mm - - -
1787832837 32.22° C 31% 1018 hPa 0 mm - - -
1787832207 32.22° C 32% 1018 hPa 0 mm - - -
1787831607 31.67° C 32% 1018.1 hPa 0 mm - - -
1787831007 31.67° C 32% 1019 hPa 0 mm - - -

* Rain latest hour (hover to see other rain measurements)
** Current wind speed in m/s (hover to see current wind gust speed)